Location: Unspecified
(0.0000°N, 0.0000°E)
Time: 16:24:39
(UTC+00:00)

Vanguard 1 - Pass Details

Date: 16 December 2025
Orbit: 651 x 3820 km, 34.2° (Epoch: 14 January)

Event Time Altitude Azimuth Distance (km) Brightness Sun altitude
Rises 17:45:11 0° 295° (WNW) 6,269 14.9 2.5°
Reaches altitude 10° 17:48:48 10° 292° (WNW) 5,598 14.7 1.6°
Maximum altitude 18:07:26 61° 216° (SW) 4,007 13.5 -2.7°
Drops below altitude 10° 18:30:32 10° 138° (SE) 6,659 14.1 -7.9°
Sets 18:35:27 0° 134° (SE) 7,449 14.3 -9.1°
